ROSSMERE Weather Reports


time (UTC)temp
C
wind
direction
speed
KPH
gust
KPH
rain 1hr
cm
rain 24hr
cm
rain mn
cm
humidity
%
barometer
mb
20260906191533 25 194 4.8 9.7 0.00 0.00 0.00 60 1017.2
20260906190028 25 248 8.0 16.1 0.00 0.00 0.00 62 1017.4
20260906184519 25 292 0.0 17.7 0.00 0.00 0.00 60 1017.5
20260906183016 24 180 6.4 12.9 0.00 0.00 0.00 61 1017.8
20260906181526 24 208 4.8 11.3 0.00 0.00 0.00 62 1017.8
20260906180008 23 185 4.8 14.5 0.00 0.00 0.00 64 1018.1
20260906174506 23 192 11.3 16.1 0.00 0.00 0.00 66 1018.2
20260906173006 23 190 4.8 16.1 0.00 0.00 0.00 65 1018.5
20260906171503 22 188 0.0 6.4 0.00 0.00 0.00 65 1018.8
20260906164612 22 210 3.2 11.3 0.00 0.00 0.00 67 1019.0
20260906163056 22 161 1.6 9.7 0.00 0.00 0.00 67 1019.1
20260906161554 21 194 3.2 11.3 0.00 0.00 0.00 68 1019.2
20260906160053 21 193 3.2 8.0 0.00 0.00 0.00 68 1019.2
20260906154556 21 75 3.2 9.7 0.00 0.00 0.00 69 1019.2
20260906153048 20 164 8.0 14.5 0.00 0.00 0.00 70 1019.4
20260906151545 20 150 6.4 12.9 0.00 0.00 0.00 70 1019.5
20260906150046 20 163 1.6 9.7 0.00 0.00 0.00 73 1019.5
20260906144541 19 126 3.2 11.3 0.00 0.00 0.00 75 1019.6
20260906143048 19 173 1.6 6.4 0.00 0.00 0.00 79 1019.5
20260906141533 17 157 0.0 6.4 0.00 0.00 0.00 86 1019.5
20260906140041 16 309 0.0 0.0 0.00 0.00 0.00 92 1019.7
20260906134526 15 65 0.0 0.0 0.00 0.00 0.00 94 1019.6
20260906133023 14 65 0.0 1.6 0.00 0.00 0.00 97 1019.6
20260906131523 13 65 0.0 1.6 0.00 0.00 0.00 99 1019.6
20260906130036 11 65 0.0 0.0 0.00 0.00 0.00 99 1019.8
20260906124520 10 65 0.0 3.2 0.00 0.00 0.00 99 1019.8
20260906123022 8 65 0.0 3.2 0.00 0.00 0.00 99 1019.5
20260906121516 8 65 0.0 0.0 0.00 0.00 0.00 98 1019.3
20260906120016 8 66 0.0 3.2 0.00 0.00 0.00 98 1019.2
20260906114515 8 65 0.0 6.4 0.00 0.00 0.00 98 1019.2
20260906113013 8 65 1.6 8.0 0.00 0.00 0.00 97 1019.2
20260906111519 8 63 1.6 3.2 0.00 0.00 0.00 98 1018.9
20260906110013 8 63 0.0 4.8 0.00 0.00 0.00 98 1018.8
20260906104513 8 63 0.0 0.0 0.00 0.00 0.00 97 1018.8
20260906103008 8 63 0.0 0.0 0.00 0.00 0.00 98 1018.9
20260906101506 8 63 4.8 6.4 0.00 0.00 0.00 98 1019.0
20260906100004 9 69 3.2 4.8 0.00 0.00 0.00 98 1018.8
20260906094502 9 70 0.0 0.0 0.00 0.00 0.00 98 1018.6
20260906093000 9 69 0.0 3.2 0.00 0.00 0.00 96 1018.7
20260906091559 9 70 0.0 3.2 0.00 0.00 0.00 97 1018.6
20260906090113 10 69 0.0 0.0 0.00 0.00 0.00 97 1018.6
20260906084555 10 69 0.0 3.2 0.00 0.00 0.00 97 1018.5
20260906083055 10 70 0.0 4.8 0.00 0.00 0.00 97 1018.5
20260906081555 10 132 0.0 3.2 0.00 0.00 0.00 96 1018.6
20260906080052 10 132 0.0 0.0 0.00 0.00 0.00 96 1018.6
20260906074550 10 132 0.0 0.0 0.00 0.00 0.00 96 1018.7
20260906073049 10 132 0.0 0.0 0.00 0.00 0.00 97 1019.0
20260906071558 10 134 1.6 4.8 0.00 0.00 0.00 96 1018.9
20260906070046 11 137 0.0 0.0 0.00 0.00 0.00 95 1019.0
20260906064543 11 137 0.0 0.0 0.00 0.00 0.00 96 1018.7
20260906063041 11 137 0.0 0.0 0.00 0.00 0.00 95 1018.6
20260906061538 12 137 0.0 0.0 0.00 0.00 0.00 95 1018.4
20260906060035 12 137 0.0 0.0 0.00 0.00 0.00 95 1018.5
20260906054535 12 137 0.0 0.0 0.00 0.00 0.00 94 1018.3
20260906053037 12 137 0.0 0.0 0.00 0.00 0.00 94 1018.2
20260906051533 12 137 0.0 0.0 0.00 0.00 0.00 93 1018.1
20260906050048 13 137 0.0 0.0 0.00 0.00 0.00 93 1018.2
20260906044525 13 138 0.0 3.2 0.00 0.00 0.00 92 1018.4
20260906043022 14 138 0.0 0.0 0.00 0.00 0.00 91 1018.2
20260906041520 15 138 0.0 0.0 0.00 0.00 0.00 91 1018.2
20260906040017 15 138 0.0 1.6 0.00 0.00 0.00 90 1018.2
20260906034518 15 138 0.0 0.0 0.00 0.00 0.00 88 1018.2
20260906033021 16 138 1.6 4.8 0.00 0.00 0.00 85 1018.1
20260906031519 17 170 0.0 0.0 0.00 0.00 0.00 82 1017.8
20260906030014 18 170 0.0 4.8 0.00 0.00 0.00 81 1017.5
20260906024514 18 168 0.0 4.8 0.00 0.00 0.00 80 1017.2
20260906023016 18 163 0.0 4.8 0.00 0.00 0.00 78 1017.1
20260906021513 19 160 1.6 6.4 0.00 0.00 0.00 77 1017.1
20260906020013 19 175 1.6 8.0 0.00 0.00 0.00 77 1017.2
20260906014513 20 156 1.6 9.7 0.00 0.00 0.00 75 1017.1
20260906013013 20 142 4.8 9.7 0.00 0.00 0.00 75 1017.0
20260906011512 20 149 6.4 11.3 0.00 0.00 0.00 74 1016.9
20260906010011 20 152 3.2 12.9 0.00 0.00 0.00 74 1016.8
20260906004511 21 155 6.4 12.9 0.00 0.00 0.00 72 1016.7
20260906003011 21 150 3.2 14.5 0.00 0.00 0.00 71 1016.5
20260906001510 22 136 8.0 14.5 0.00 0.00 0.00 69 1016.5
20260906000010 22 129 4.8 17.7 0.00 0.00 0.00 67 1016.5
20260905234510 23 173 6.4 12.9 0.00 0.00 0.00 65 1016.4
20260905233020 24 122 3.2 9.7 0.00 0.00 0.00 63 1016.2
20260905231508 24 160 4.8 9.7 0.00 0.00 0.00 61 1016.2
20260905230007 25 177 1.6 6.4 0.00 0.00 0.00 60 1016.4
20260905224508 24 170 0.0 6.4 0.00 0.00 0.00 61 1016.5
20260905223005 25 153 4.8 9.7 0.00 0.00 0.00 59 1016.5
20260905221502 25 273 0.0 0.0 0.00 0.00 0.00 60 1016.7
20260905220002 23 273 1.6 6.4 0.00 0.00 0.00 62 1016.7
20260905214609 24 279 4.8 6.4 0.00 0.00 0.00 60 1016.6
20260905213109 24 286 4.8 11.3 0.00 0.00 0.00 60 1016.7
20260905211601 24 303 3.2 6.4 0.00 0.00 0.00 61 1016.8
20260905210058 24 308 0.0 9.7 0.00 0.00 0.00 58 1016.9
20260905204557 23 278 4.8 9.7 0.00 0.00 0.00 60 1016.9
20260905203056 25 246 0.0 3.2 0.00 0.00 0.00 56 1017.0
20260905201553 23 246 0.0 3.2 0.00 0.00 0.00 59 1017.4
20260905200057 23 246 3.2 11.3 0.00 0.00 0.00 59 1017.6
20260905194556 23 250 0.0 11.3 0.00 0.00 0.00 58 1017.7
20260905193048 23 244 9.7 19.3 0.00 0.00 0.00 58 1017.7